GFSMA_925_spd_108.txt.gz
Wind_Speed
22 21 21 20 20 19 19 18 19 18 18 18 18 17 17 15 13 11 13 13 17 22 24 29 39 30 29 29 28 27 26 23 21 20 19 18 19 19 18 17 16 15 14
21 23 22 21 21 20 19 19 19 18 19 18 17 17 17 14 13 14 14 12 17 19 21 23 25 21 25 28 31 26 25 24 20 20 19 18 19 19 19 18 17 17 16
24 25 26 24 22 21 20 19 18 17 16 15 16 17 16 16 14 16 14 15 18 19 24 27 31 31 33 33 31 27 23 20 20 19 19 20 20 20 19 19 18 18 17
27 24 23 28 23 22 21 20 18 17 16 15 15 16 16 15 15 16 15 17 18 21 16 25 18 22 34 35 31 27 24 21 20 18 18 19 21 21 20 20 18 18 18
29 28 25 24 29 26 21 21 20 19 17 16 16 15 15 15 15 14 14 16 17 20 12 16 21 29 39 35 30 27 25 23 21 19 19 20 22 22 21 20 19 18 18
30 32 28 25 30 28 24 21 20 19 16 16 13 14 15 15 15 15 15 15 14 16 15 14 10 24 28 25 28 27 26 25 23 21 19 20 23 22 21 21 19 19 17
29 33 29 28 31 29 26 26 19 18 15 14 10 13 16 15 14 14 16 17 18 16 16 13 12 21 28 28 27 26 26 25 24 22 21 22 22 22 21 21 21 20 19
30 34 36 33 34 26 27 25 25 17 14 18 7 4 2 6 14 16 17 21 21 17 16 17 18 21 27 25 26 27 26 26 25 23 21 24 24 22 22 21 21 21 21
39 41 41 37 34 30 29 28 29 23 15 21 18 7 2 3 2 12 22 21 20 20 20 16 19 24 25 22 24 27 28 28 27 24 23 25 25 23 23 22 22 21 20
37 38 38 37 32 32 29 30 30 24 20 17 19 22 12 5 4 4 11 19 20 20 20 20 16 20 31 26 22 25 30 29 28 24 26 29 25 24 24 24 23 22 21
38 37 39 37 36 34 30 30 30 26 25 20 21 12 19 13 8 5 7 6 15 20 22 21 26 23 24 33 26 23 29 30 26 26 28 28 25 24 25 24 23 22 22
34 36 38 39 38 34 32 33 29 27 26 23 21 21 19 9 11 7 9 7 10 11 18 22 24 25 29 33 28 24 28 29 28 29 30 27 26 26 25 23 23 22 20
29 35 38 37 37 39 36 33 31 28 27 26 24 24 22 22 16 15 16 12 8 10 8 16 26 29 31 34 30 25 25 30 30 31 30 29 28 27 27 25 22 21 20
28 30 35 35 37 37 34 33 28 27 27 26 23 23 21 22 20 18 13 10 3 5 10 10 20 28 32 38 35 26 25 30 32 32 31 30 30 28 27 26 26 24 22
25 27 33 32 32 35 35 33 28 28 23 24 24 24 23 23 21 21 22 21 13 3 7 13 12 28 33 33 37 32 29 26 34 34 33 31 32 31 29 28 27 25 24
24 24 29 33 31 32 35 31 23 21 22 23 23 22 24 21 21 22 23 21 22 19 9 18 21 17 31 33 35 31 31 29 29 35 36 34 32 32 34 33 30 28 27
28 28 30 33 33 35 36 31 28 22 23 22 19 20 21 19 22 23 24 22 22 22 12 19 21 21 24 30 35 36 33 29 28 33 36 35 33 32 31 30 30 29 29
26 28 30 33 32 31 32 30 26 24 23 20 19 19 17 19 24 24 24 24 23 24 23 17 17 17 21 35 39 35 33 27 25 28 33 35 34 32 31 31 31 30 29
26 29 32 30 31 31 30 27 24 22 19 17 16 16 15 17 17 19 21 22 25 28 25 24 17 21 20 29 28 26 26 27 25 23 26 30 32 32 31 31 29 28 25
18 23 27 28 28 26 26 25 24 23 17 14 13 11 12 15 17 19 20 22 25 26 27 23 22 18 24 27 29 29 21 18 18 16 18 21 23 23 24 23 23 23 21
10 14 18 20 23 23 23 24 22 20 17 14 10 9 9 10 13 16 20 25 23 26 26 23 18 17 19 26 27 22 18 24 18 20 24 22 24 23 22 21 21 20 20
15 22 21 23 24 20 24 22 19 21 16 12 10 6 4 3 5 6 9 15 24 24 26 25 24 21 23 27 27 30 29 16 6 18 20 20 21 22 21 18 18 20 20
30 29 23 24 23 20 19 21 22 24 18 12 8 5 3 2 2 2 1 5 2 5 18 18 19 16 21 29 32 32 33 25 12 29 24 16 19 20 20 20 20 22 21
30 35 32 31 31 27 23 23 25 25 21 16 12 9 6 6 3 1 3 9 15 15 11 6 10 9 11 24 35 34 31 28 26 30 21 7 20 23 21 19 16 17 17
39 39 34 40 31 31 24 27 29 28 26 25 21 16 11 10 7 8 10 18 20 23 25 25 21 16 13 18 24 34 29 31 9 12 8 14 16 26 23 20 17 16 18
36 39 38 39 34 36 33 26 24 27 30 28 28 28 26 18 12 12 16 20 24 20 20 21 26 25 22 18 14 17 21 24 16 5 15 9 26 21 6 19 20 19 17

GFSMA_925_spd_111.txt.gz
Wind_Speed
21 21 21 21 21 22 20 21 19 18 20 19 17 15 16 15 14 12 10 10 12 14 20 19 20 26 24 30 32 32 29 26 25 23 22 21 20 20 19 18 15 14 17
21 21 22 22 21 18 22 20 20 19 19 19 18 18 17 16 15 13 11 10 10 12 19 21 16 19 20 32 32 31 30 27 26 24 23 21 21 21 21 19 17 17 17
24 25 24 23 23 20 20 22 22 19 18 16 17 16 17 15 14 15 12 8 4 9 13 14 17 16 29 45 33 28 28 27 26 24 24 22 21 21 21 20 19 19 19
29 27 25 27 23 21 20 21 23 20 19 17 17 17 16 15 15 13 12 12 11 12 11 14 20 25 22 32 24 25 27 27 26 24 23 22 21 21 20 19 20 20 19
30 29 24 27 27 27 22 21 22 21 19 19 18 16 14 14 13 14 14 14 12 16 13 15 18 20 25 28 26 30 30 27 26 25 23 22 21 21 21 21 20 19 19
30 28 25 24 26 27 28 22 23 23 20 19 17 15 14 12 13 13 15 14 13 12 12 12 14 19 25 29 29 39 31 29 27 25 23 20 22 23 23 22 21 20 20
27 30 29 27 29 29 30 29 23 22 22 17 10 11 11 11 13 17 15 15 13 12 14 14 16 18 13 29 34 36 32 30 28 27 26 23 22 25 25 24 23 21 21
29 31 32 31 32 31 30 30 29 21 20 21 11 7 4 7 14 16 15 16 16 14 13 14 17 13 12 21 26 31 32 31 30 29 28 23 25 27 26 25 24 23 22
33 33 34 31 30 31 30 33 31 28 21 21 20 10 3 5 3 14 19 19 17 17 16 19 17 18 18 19 25 29 33 33 32 31 30 24 25 26 27 26 25 24 22
33 35 34 37 32 33 30 32 31 29 23 20 21 24 19 8 6 5 10 18 20 19 19 20 19 18 22 25 21 30 36 34 34 33 30 25 26 26 27 26 25 24 23
34 35 37 35 36 35 33 31 30 31 29 23 24 16 22 16 14 7 6 6 12 14 20 20 19 20 19 21 30 31 35 35 36 36 32 26 28 28 28 27 26 26 24
29 34 35 38 38 34 34 33 34 35 33 28 24 21 20 13 11 12 8 11 10 11 16 18 18 20 20 23 26 30 32 34 37 37 32 29 29 31 29 28 26 25 24
27 30 37 36 37 37 34 35 35 30 28 29 28 24 23 21 18 18 18 13 7 9 7 14 17 18 22 23 24 30 30 37 37 38 34 31 31 33 31 29 26 26 25
32 30 35 36 36 36 35 34 34 34 41 35 27 26 21 21 19 18 14 11 5 6 9 11 14 20 20 24 25 28 31 37 35 37 35 34 33 32 31 30 29 25 23
31 30 33 36 35 34 33 32 31 32 32 31 24 22 22 19 18 16 17 12 10 4 7 13 15 16 22 22 26 27 34 33 32 34 35 35 34 32 31 31 30 28 26
37 30 30 34 34 33 33 34 30 28 24 22 21 25 22 19 18 18 18 17 19 18 10 16 19 18 18 22 27 28 41 36 32 35 36 35 34 33 32 31 31 30 29
36 30 30 31 33 31 37 34 33 28 28 23 21 22 23 20 17 17 18 19 20 21 10 19 17 13 17 21 28 31 38 37 30 32 37 36 34 33 33 33 32 31 30
31 32 26 28 31 33 36 37 34 31 28 24 23 21 20 18 18 18 20 21 21 21 19 15 18 18 17 24 25 32 33 34 31 31 30 36 36 36 35 35 34 34 33
24 28 24 24 29 32 36 37 34 34 33 27 17 20 19 16 19 19 20 20 20 21 20 18 17 18 18 22 25 25 25 27 28 29 30 34 38 39 38 35 34 34 34
7 17 22 27 29 31 31 32 29 26 25 22 22 18 15 15 14 9 7 10 12 16 18 21 20 16 17 21 26 28 22 23 22 24 30 28 32 35 37 36 35 36 36
18 13 12 18 22 26 27 29 29 25 26 25 22 17 13 12 11 12 11 13 13 18 19 19 18 14 16 13 21 22 16 27 20 18 23 17 18 22 23 25 26 29 31
26 22 19 17 13 17 24 22 24 26 27 23 18 13 11 6 3 0 3 5 8 14 19 16 17 15 18 22 24 28 26 14 4 19 23 21 20 23 21 23 25 30 32
39 37 34 28 26 19 16 28 31 31 28 26 17 11 10 8 7 3 1 3 7 7 3 12 12 7 13 24 27 25 28 25 11 29 28 20 16 21 19 20 22 22 24
41 41 38 32 36 32 31 31 33 30 28 24 17 14 11 10 7 6 5 8 12 15 13 11 7 2 7 16 27 28 26 20 24 29 21 7 20 21 23 18 20 20 20
39 39 41 37 36 42 30 33 34 34 34 31 26 17 16 15 13 11 9 13 16 17 17 17 16 12 2 9 22 25 27 27 7 10 9 11 18 29 23 18 16 16 18
34 35 38 37 40 41 41 36 32 29 27 27 29 30 32 22 15 14 16 16 21 16 16 17 19 20 19 15 15 18 21 17 14 6 16 9 23 20 8 16 23 22 19

GFSMA_925_spd_114.txt.gz
Wind_Speed
22 23 23 21 25 24 23 21 21 18 18 18 19 16 16 17 16 14 9 8 9 9 11 12 13 15 19 20 27 30 31 31 29 27 26 24 22 20 19 18 16 15 15
25 24 25 25 24 27 26 23 21 22 19 18 20 20 18 15 15 15 11 9 8 10 12 14 12 17 21 18 19 20 31 32 29 28 26 24 22 21 20 19 17 14 14
27 26 25 27 24 25 27 26 22 18 20 20 19 18 18 16 15 14 12 12 12 13 13 16 20 20 18 17 21 22 40 33 30 28 26 24 23 22 21 21 19 15 16
33 24 31 24 21 24 28 27 28 24 21 19 17 17 16 16 16 16 16 14 12 11 15 15 17 18 18 21 17 24 33 34 32 29 27 26 24 23 23 22 21 17 18
30 32 27 34 31 19 20 24 28 26 24 21 17 17 17 16 16 17 17 16 16 17 17 17 19 19 18 25 27 21 38 35 33 30 28 28 26 25 23 22 22 20 20
35 31 30 31 30 29 24 20 26 25 23 24 20 20 19 16 15 16 18 19 20 20 19 19 18 17 17 20 21 18 39 34 32 30 30 28 27 26 24 24 22 24 23
32 36 33 30 33 35 33 30 22 26 21 20 17 14 10 13 18 19 19 19 19 21 19 19 18 14 12 15 20 27 25 27 30 29 29 27 26 26 25 24 25 25 24
34 36 35 30 30 30 32 30 25 22 21 23 9 12 3 8 20 21 21 22 23 23 22 18 19 17 14 17 23 28 26 32 31 31 27 26 26 26 27 27 26 26 25
32 36 35 35 31 30 29 33 32 27 22 26 24 7 3 4 4 15 25 23 23 24 24 20 19 19 17 15 18 27 26 27 31 31 29 27 27 23 29 28 26 26 25
41 35 38 36 35 30 31 33 33 34 27 23 27 28 13 7 3 2 17 25 25 25 24 21 22 20 19 20 17 19 21 23 29 31 31 29 28 26 29 29 28 28 27
28 39 39 36 35 32 33 34 34 34 35 30 29 24 25 20 14 2 3 8 22 24 26 25 25 23 22 23 25 21 19 29 31 32 34 32 29 29 29 31 30 29 28
31 29 41 41 39 39 35 34 35 35 37 33 29 27 23 17 13 6 3 4 10 19 24 26 25 24 24 25 23 27 26 29 34 35 38 37 33 32 31 31 30 30 29
33 34 33 41 41 39 38 36 36 36 38 35 32 31 24 23 18 19 14 7 4 7 11 18 23 25 23 26 25 25 25 32 37 40 42 41 37 35 33 34 32 31 29
35 34 31 38 38 37 42 37 36 35 37 37 34 31 29 27 26 24 22 14 3 3 5 8 22 21 22 26 27 27 30 31 34 41 43 44 39 36 35 35 34 31 29
39 39 38 32 35 37 42 40 39 37 33 37 31 32 27 29 30 30 24 22 9 4 5 14 10 22 26 24 25 27 30 33 35 42 44 44 41 37 36 37 35 32 29
40 40 40 34 37 36 38 39 38 38 36 31 35 29 32 26 22 30 22 16 16 10 4 16 18 17 21 23 26 26 28 28 35 39 42 43 42 38 36 36 35 33 32
44 42 41 38 38 36 37 36 36 34 36 33 31 32 29 18 29 23 19 21 23 23 8 10 15 14 20 21 20 23 26 27 32 38 44 42 42 39 37 35 34 34 34
32 40 39 39 40 41 38 37 36 32 34 33 27 28 30 38 32 26 24 26 23 20 16 8 15 19 18 20 22 22 26 27 31 38 45 41 39 38 38 38 35 34 34
22 16 32 35 37 36 35 34 36 33 33 32 33 33 30 31 28 25 25 22 21 17 17 13 9 16 16 17 24 24 23 28 31 34 38 38 40 38 38 37 36 36 35
20 14 15 30 35 34 30 33 30 29 29 30 29 28 26 26 25 22 16 11 8 5 7 11 11 11 14 18 23 27 23 26 30 29 35 33 36 38 38 38 36 36 35
31 22 23 21 9 7 12 24 30 28 29 24 25 25 23 22 21 19 14 8 4 5 5 9 13 11 13 9 13 17 19 27 21 20 26 26 32 33 33 37 40 39 37
43 40 43 36 33 28 7 25 29 24 30 34 29 25 21 18 15 12 10 3 3 3 6 8 10 13 19 21 22 25 21 10 3 19 23 17 19 24 24 24 26 27 31
43 41 41 40 40 40 33 25 26 31 29 25 27 23 19 16 13 12 14 10 9 8 4 3 6 7 8 8 13 24 24 19 12 23 23 15 18 23 23 21 24 28 32
42 35 42 42 43 42 40 39 35 32 33 29 24 17 19 17 14 14 15 15 14 13 10 8 5 2 7 16 13 19 22 17 18 23 17 7 17 25 25 25 22 22 27
41 43 42 46 47 45 42 38 41 30 46 41 35 24 19 19 13 17 20 20 19 16 13 12 11 7 2 9 8 18 25 25 6 9 6 11 15 24 24 22 23 22 24
37 37 43 49 47 45 45 41 46 30 37 36 40 36 31 25 18 16 19 21 24 16 15 13 14 14 14 13 8 11 17 14 13 5 16 10 23 14 7 17 20 20 20

GFSMA_925_spd_117.txt.gz
Wind_Speed
26 26 27 28 27 26 25 26 24 20 19 17 13 16 12 12 12 11 12 12 10 12 14 17 19 20 19 19 20 18 21 29 29 29 29 28 27 25 24 22 20 19 17
28 28 28 29 29 28 28 26 27 24 22 18 18 17 18 15 16 16 14 13 12 14 16 19 18 17 18 21 22 18 20 28 29 32 30 29 28 26 24 22 21 19 17
29 30 29 31 29 28 28 28 27 27 23 20 21 21 20 19 17 16 15 15 14 15 17 19 18 17 20 20 21 21 20 18 30 33 32 31 29 27 25 23 22 20 16
34 30 33 33 32 31 32 33 31 29 29 24 25 23 22 20 19 17 16 16 16 17 18 19 21 21 21 21 19 25 20 30 32 33 34 32 30 28 26 25 24 22 20
32 36 36 32 32 29 29 35 34 33 28 25 23 21 21 20 19 18 19 19 20 20 17 19 20 20 22 22 22 24 23 23 28 41 37 34 31 29 27 26 26 25 22
32 37 39 38 35 31 22 33 36 35 34 30 23 21 20 20 20 20 20 21 21 22 21 20 22 22 22 24 25 28 26 30 33 43 40 34 32 30 28 28 28 27 22
36 38 38 38 39 41 42 27 32 34 32 30 25 16 20 22 22 22 21 22 23 25 24 23 23 25 23 24 24 24 26 27 36 42 40 35 33 31 29 29 29 29 23
24 36 37 39 42 38 41 42 33 26 27 31 16 12 3 5 18 21 23 25 24 26 27 25 22 23 23 22 20 22 22 20 42 42 38 35 34 31 30 30 31 28 27
23 18 37 39 41 35 31 41 38 33 25 31 29 12 3 5 3 15 28 27 28 28 28 27 25 23 21 22 19 23 26 23 22 30 33 34 33 31 31 31 30 28 29
34 30 25 30 42 39 37 32 36 35 30 22 24 31 11 10 4 1 9 27 29 29 30 29 28 26 22 23 20 18 21 27 24 29 36 32 33 31 28 32 30 31 31
38 38 33 27 30 40 38 37 43 38 37 27 26 26 23 16 9 3 3 5 25 29 28 30 29 28 26 24 23 22 20 23 16 22 25 38 33 29 28 34 31 31 31
39 38 34 35 30 36 39 39 39 36 32 30 26 25 28 23 20 5 2 3 8 19 32 31 31 30 28 28 26 24 21 23 20 24 28 36 32 30 30 31 32 32 32
31 36 33 29 31 29 37 37 37 37 35 34 31 28 28 29 26 23 13 4 3 13 18 29 31 31 30 29 28 28 29 28 26 29 32 35 36 34 33 32 36 34 33
34 36 37 36 36 36 32 39 37 36 34 37 35 32 28 29 29 29 24 9 1 4 9 8 27 29 30 29 27 27 28 29 32 32 36 37 41 39 37 36 37 36 33
35 36 37 38 35 38 34 38 37 35 34 35 35 36 35 31 31 33 29 27 14 5 7 14 11 27 29 29 28 27 29 28 29 32 36 40 44 44 40 38 38 38 35
35 39 39 38 38 35 39 38 38 37 36 34 35 34 35 33 35 33 31 27 20 13 4 15 23 16 29 29 28 28 29 28 28 31 33 37 43 46 44 40 38 38 37
31 35 37 38 39 38 40 37 39 35 37 36 36 34 36 37 37 35 33 26 28 25 12 14 20 21 24 26 29 28 26 26 28 30 33 35 42 47 47 42 38 40 39
29 28 30 37 43 38 37 38 40 37 40 37 37 37 39 40 40 41 34 32 26 27 20 10 19 18 25 24 25 24 24 23 23 26 29 36 39 43 44 42 38 38 41
24 21 22 23 30 34 35 39 39 37 37 39 40 39 39 34 36 30 27 23 26 27 29 17 17 21 23 19 23 21 20 22 23 24 23 28 35 43 45 43 37 38 41
25 23 18 16 8 12 25 35 41 41 40 40 37 42 35 32 36 32 28 27 28 25 22 19 16 16 17 13 21 23 21 25 28 29 28 28 33 42 44 39 38 39 42
28 32 32 27 14 13 6 18 28 36 35 29 25 26 30 30 32 33 34 30 26 21 19 13 7 8 10 10 14 16 20 23 24 26 27 29 33 39 39 39 39 41 40
30 36 42 29 30 33 22 2 9 19 17 20 25 26 26 31 35 36 33 28 24 24 19 13 8 7 14 18 18 21 18 8 3 19 17 12 17 23 31 40 42 41 40
32 36 40 35 42 42 49 39 24 33 37 27 21 18 24 26 27 28 26 24 19 14 13 12 11 7 5 6 8 11 23 13 9 13 19 9 9 11 10 13 30 42 41
35 39 43 42 43 50 50 50 42 44 46 40 32 24 20 22 18 24 24 23 20 17 13 11 9 7 5 10 10 8 13 14 13 15 14 6 10 16 15 18 21 22 26
37 40 41 48 50 53 52 46 47 43 43 44 43 32 25 25 16 16 24 28 25 22 18 16 11 6 1 4 6 9 19 20 4 6 10 10 13 19 19 18 18 22 27
36 38 43 47 47 52 51 48 39 43 36 33 43 37 36 34 27 20 25 25 23 18 20 20 16 12 11 11 6 10 14 15 11 4 12 9 23 13 6 13 17 20 23